Home > Weather > Kaunas > Past weeks

Flag for Lithuania Past Weather in Kaunas, Lithuania — Yesterday and Last 2 Weeks

Now
73 °F

Clear.


Feels Like: 73 °F
Forecast: 62 / 82 °F
Wind: 1 mph from North

Location: Kaunas

Current Time: Jul 25, 2016 at 11:09:54 AM

Latest Report: Jul 25, 2016 at 10:20 AM


Visibility: 4 mi

Pressure: 30.07 "Hg

Humidity: 83%

Dew Point: 68 °F

Location of KaunasLocation

Past Weather in Kaunas — Graph

°F

Kaunas Temperature Yesterday

Maximum temperature yesterday: 81 °F (at 4:50 PM)
Minimum temperature yesterday: 59 °F (at 5:50 AM)
Average temperature yesterday: 70 °F

High & Low Weather Summary for the Past Weeks

 TemperatureHumidityPressure
High81 °F (Jul 24, 4:50 PM)100% (Jul 11, 10:50 PM)30.15 "Hg (Jul 11, 10:50 PM)
Low52 °F (Jul 14, 3:50 AM)38% (Jul 20, 2:50 PM)29.56 "Hg (Jul 15, 4:20 AM)
Average64 °F79%29.92 "Hg
* Reported Jul 10 9:20 AM — Jul 25 9:50 AM, Kaunas, Weather by CustomWeather, © 2016

Note: Actual official high and low records may vary slightly from our data, if they occured in-between our weather recording intervals... More about our weather records

Advertising

Kaunas Weather History for the Previous 24 Hours

Scroll right to see more
 ConditionsComfort  
Time TempWeatherWind HumidityBarometerVisibility
9:50 AM
Mon, Jul 25
72 °FClear.No wind83%30.07 "Hg4 mi
9:20 AM70 °FFog.1 mph88%30.09 "Hg3 mi
8:50 AM68 °FFog.2 mph94%30.09 "Hg3 mi
8:20 AM68 °FFog.2 mph94%30.09 "Hg2 mi
7:50 AM66 °FFog.2 mph100%30.09 "Hg2 mi
7:20 AM66 °FFog.1 mph94%30.09 "Hg2 mi
6:50 AM66 °FFog.3 mph94%30.09 "Hg2 mi
6:20 AM66 °FFog.2 mph94%30.09 "Hg2 mi
5:50 AM66 °FFog.2 mph94%30.09 "Hg1 mi
5:20 AM66 °FFog.2 mph94%30.09 "Hg2 mi
4:50 AM66 °FSprinkles. Mostly cloudy.5 mph94%30.09 "Hg2 mi
4:20 AM64 °FFog.1 mph94%30.09 "Hg1 mi
3:50 AM64 °FFog.1 mph94%30.09 "Hg2 mi
3:20 AM64 °FFog.No wind100%30.09 "Hg3 mi
2:50 AM64 °FFog.1 mph100%30.09 "Hg3 mi
2:20 AM64 °FFog.3 mph94%30.09 "Hg2 mi
1:50 AM64 °FFog.3 mph94%30.09 "Hg3 mi
1:20 AM64 °FFog.3 mph94%30.09 "Hg3 mi
12:56 AM64 °FFog.3 mph94%30.09 "Hg2 mi
12:20 AM66 °FPassing clouds.No wind94%30.09 "Hg4 mi
11:50 PM
Sun, Jul 24
68 °FFog.1 mph88%30.09 "Hg2 mi
11:20 PM68 °FFog.2 mph88%30.09 "Hg3 mi
10:50 PM70 °FFog.2 mph88%30.09 "Hg3 mi
10:20 PM70 °FClear.5 mph88%30.09 "Hg4 mi
9:50 PM70 °FClear.6 mph88%30.09 "Hg4 mi
9:20 PM72 °FClear.3 mph83%30.09 "Hg5 mi
8:50 PM72 °FSunny.5 mph78%30.09 "Hg10 mi
8:20 PM75 °FClear.3 mph69%30.09 "Hg6 mi
7:50 PM77 °FSunny.5 mph69%30.07 "Hg10 mi
7:20 PM77 °FPassing clouds.7 mph69%30.09 "HgN/A
6:50 PM79 °FPassing clouds.7 mph61%30.07 "HgN/A
6:20 PM79 °FPassing clouds.5 mph58%30.09 "HgN/A
5:50 PM79 °FScattered clouds.6 mph58%30.09 "HgN/A
5:20 PM79 °FPassing clouds.6 mph54%30.09 "HgN/A
4:50 PM81 °FPassing clouds.3 mph54%30.09 "HgN/A
4:20 PM79 °FPassing clouds.6 mph58%30.09 "HgN/A
3:50 PM79 °FPassing clouds.6 mph58%30.09 "HgN/A
3:20 PM79 °FScattered clouds.8 mph58%30.09 "HgN/A
2:50 PM77 °FBroken clouds.8 mph57%30.12 "HgN/A
2:20 PM79 °FBroken clouds.3 mph58%30.12 "HgN/A
1:50 PM77 °FScattered clouds.6 mph61%30.12 "HgN/A
1:20 PM77 °FBroken clouds.6 mph61%30.09 "HgN/A
12:50 PM75 °FBroken clouds.8 mph65%30.12 "HgN/A
12:20 PM73 °FBroken clouds.6 mph69%30.12 "HgN/A
11:50 AM75 °FBroken clouds.6 mph65%30.12 "Hg6 mi
11:20 AM73 °FScattered clouds.7 mph69%30.12 "HgN/A
Weather by CustomWeather, © 2016

See weather overviewHow to use our weather pages